Starlink 11446

operational
NORAD ID: 62416 Int'l Des: 2024-249 Owner: SPXS Country: US Constellation: starlink
LEOCIRCULAR

Über Starlink 11446

Beschreibung wird geladen...

Live-Position

3D-Globus wird geladen...

Nächste Überflüge

Höhenverlauf

Altitude vs Time

uPlot chart will show altitude changes over time

Zweizeiliger Elementsatz

1 62416U 24249H 25352.54593695 .00194719 00000-0 14828-2 0 9999
2 62416 43.0004 296.3298 0000475 315.5405 44.5425 15.70886973 56728
Epoch: 18. Dez. 2025 • Age: 12 hours

Aktueller Status

Höhe 366.8 km
Geschwindigkeit 7.69 km/s
Subsatellitenpunkt -37.67°S, 68.72°E
Startdatum 23. Dez. 2024
Alter 0.9 years
Typ internet

Technische Details

Klassifizierung Payload
Masse 960.00 kg
Trockenmasse 910.00 kg
Gesamtmasse 960.00 kg
Länge 0.30 m
Durchmesser 4.10 m
Spannweite 29.00 m
Form Box + pan
Hersteller SPXS
Bus-Typ Starlink V2MD
Phasenstatus In Orbit
Besitzer/Staat SPXS/US

Große Konstellationen

Loading constellations...